Thermopolis, WY

7:33 PM MDT on April 26, 2017 (GMT -0600)
Thermopolis

Weather History for KTBX - November, 2012

Change the Weather History Date:

Tuesday, November 27, 2012

  Actual Average (KWRL) Record (KWRL)
Temperature  
Mean Temperature 28 °F -  
Max Temperature 33 °F 35 °F 68 °F (1998)
Min Temperature 23 °F 10 °F -14 °F (1985)
Degree Days  
Heating Degree Days 37    
Moisture  
Dew Point 12 °F    
Average Humidity 50    
Maximum Humidity 80    
Minimum Humidity 28    
Precipitation  
Precipitation 0.00 in - - ()
Sea Level Pressure  
Sea Level Pressure 30.18 in    
Wind  
Wind Speed 9 mph ()    
Max Wind Speed 18 mph    
Max Gust Speed 26 mph    
Visibility 10.0 miles    
Events      
Averages and records for this station are not official NWS values.
T = Trace of Precipitation, MM = Missing Value Source: Averaged Metar Reports

Daily Weather History Graph

Daily Weather History Graph

Search for Another Location

Airport or City:

Trip Planner

Search our weather history database for the weather conditions in past years. The results will help you decide how hot, cold, wet, or windy it might be!

Date:

Astronomy

Nov. 27, 2012 Rise Set
Actual Time 7:22 AM MST 4:39 PM MST
Civil Twilight 6:50 AM MST 5:11 PM MST
Nautical Twilight 6:14 AM MST 5:46 PM MST
Astronomical Twilight 5:40 AM MST 6:20 PM MST
Moon 4:13 PM MST 6:29 AM MST
Length of Visible Light 10h 20m
Length of Day
9h 17m
Waxing Gibbous, 99% of the Moon is Illuminated
Nov 27
Waxing Gibbous
Nov 28
Full
Dec 6
Last Quarter
Dec 13
New
Dec 19
First Quarter

Hourly Weather History & Observations

Time (MST) Temp. Windchill Dew Point Humidity Pressure Visibility Wind Dir Wind Speed Gust Speed Precip Events Conditions
12:15 AM 26.6 °F 17.5 °F 17.6 °F 69% 30.17 in - SE 9.2 mph - N/A   Clear
12:35 AM 26.6 °F 21.2 °F 17.6 °F 69% 30.17 in - SSE 4.6 mph - N/A   Clear
12:55 AM 24.8 °F 16.9 °F 17.6 °F 74% 30.16 in - SSE 6.9 mph - N/A   Clear
1:15 AM 23.0 °F 12.4 °F 17.6 °F 80% 30.15 in - SE 10.4 mph - N/A   Clear
1:35 AM 23.0 °F 10.6 °F 17.6 °F 80% 30.14 in - SE 13.8 mph 19.6 mph N/A   Clear
2:15 AM 23.0 °F 11.7 °F 17.6 °F 80% 30.14 in - SSE 11.5 mph - N/A   Clear
2:35 AM 23.0 °F 12.4 °F 17.6 °F 80% 30.14 in - SSE 10.4 mph - N/A   Clear
2:55 AM 23.0 °F 11.1 °F 17.6 °F 80% 30.14 in - SSE 12.7 mph - N/A   Clear
3:15 AM 23.0 °F 12.4 °F 17.6 °F 80% 30.13 in - SSE 10.4 mph - N/A   Clear
3:55 AM 23.0 °F 11.1 °F 17.6 °F 80% 30.12 in - SSE 12.7 mph 18.4 mph N/A   Clear
4:15 AM 23.0 °F 10.6 °F 17.6 °F 80% 30.12 in - SSE 13.8 mph 19.6 mph N/A   Clear
4:35 AM 23.0 °F 9.6 °F 17.6 °F 80% 30.12 in - South 16.1 mph 25.3 mph N/A   Clear
4:55 AM 26.6 °F 13.4 °F 14.0 °F 59% 30.12 in - South 18.4 mph 26.5 mph N/A   Clear
5:15 AM 23.0 °F 13.9 °F 15.8 °F 74% 30.12 in - SSE 8.1 mph - N/A   Clear
5:55 AM 28.4 °F 19.7 °F 10.4 °F 47% 30.12 in - SSW 9.2 mph - N/A   Clear
6:35 AM 30.2 °F 21.3 °F 8.6 °F 40% 30.13 in - SSW 10.4 mph - N/A   Clear
6:55 AM 30.2 °F 21.9 °F 8.6 °F 40% 30.13 in - SW 9.2 mph - N/A   Clear
7:15 AM 32.0 °F 23.6 °F 5.0 °F 32% 30.14 in - SSW 10.4 mph - N/A   Clear
7:35 AM 32.0 °F 22.1 °F 6.8 °F 35% 30.14 in - SSW 13.8 mph - N/A   Clear
7:55 AM 30.2 °F 21.3 °F 8.6 °F 40% 30.15 in - West 10.4 mph - N/A   Clear
8:35 AM 32.0 °F 24.8 °F 3.2 °F 30% 30.17 in - West 8.1 mph - N/A   Clear
8:55 AM 30.2 °F 22.6 °F 6.8 °F 37% 30.18 in - WNW 8.1 mph - N/A   Clear
9:35 AM 32.0 °F 23.0 °F 5.0 °F 32% 30.19 in - West 11.5 mph - N/A   Clear
9:55 AM 32.0 °F 24.2 °F 6.8 °F 35% 30.20 in - WSW 9.2 mph - N/A   Clear
10:15 AM 33.8 °F 27.7 °F 3.2 °F 28% 30.20 in - WSW 6.9 mph - N/A   Clear
10:35 AM 33.8 °F 27.0 °F 3.2 °F 28% 30.21 in - WSW 8.1 mph - N/A   Clear
10:55 AM 33.8 °F 28.6 °F 5.0 °F 30% 30.21 in - SSW 5.8 mph - N/A   Clear
11:15 AM 33.8 °F 28.6 °F 3.2 °F 28% 30.21 in - SSW 5.8 mph - N/A   Clear
11:35 AM 32.0 °F 25.6 °F 10.4 °F 41% 30.20 in - SSE 6.9 mph - N/A   Clear
11:55 AM 32.0 °F 24.2 °F 8.6 °F 38% 30.20 in - SSE 9.2 mph - N/A   Clear
12:15 PM 32.0 °F 23.6 °F 12.2 °F 44% 30.20 in - South 10.4 mph - N/A   Clear
12:35 PM 32.0 °F 25.6 °F 12.2 °F 44% 30.19 in - SSE 6.9 mph - N/A   Clear
12:55 PM 32.0 °F 23.6 °F 12.2 °F 44% 30.18 in - SSE 10.4 mph 16.1 mph N/A   Clear
1:15 PM 32.0 °F 24.2 °F 15.8 °F 51% 30.19 in - SSE 9.2 mph - N/A   Clear
1:35 PM 32.0 °F 23.6 °F 17.6 °F 55% 30.19 in - SE 10.4 mph - N/A   Clear
1:55 PM 32.0 °F 24.8 °F 17.6 °F 55% 30.19 in - SSE 8.1 mph - N/A   Clear
2:15 PM 32.0 °F 25.6 °F 14.0 °F 48% 30.18 in - SSE 6.9 mph - N/A   Clear
2:35 PM 32.0 °F 24.2 °F 14.0 °F 48% 30.19 in - SE 9.2 mph - N/A   Clear
2:55 PM 32.0 °F 24.2 °F 17.6 °F 55% 30.19 in - SSE 9.2 mph - N/A   Clear
3:15 PM 32.0 °F 24.8 °F 12.2 °F 44% 30.19 in - SSE 8.1 mph - N/A   Clear
3:35 PM 32.0 °F 24.2 °F 14.0 °F 48% 30.20 in - SSE 9.2 mph - N/A   Clear
3:55 PM 32.0 °F 26.4 °F 10.4 °F 41% 30.20 in - SE 5.8 mph - N/A   Clear
4:15 PM 33.8 °F 26.4 °F 12.2 °F 41% 30.20 in - SW 9.2 mph - N/A   Clear
4:35 PM 33.8 °F 28.6 °F 12.2 °F 41% 30.20 in - SW 5.8 mph - N/A   Clear
4:55 PM 33.8 °F 28.6 °F 12.2 °F 41% 30.21 in - SW 5.8 mph - N/A   Clear
5:15 PM 32.0 °F 25.6 °F 15.8 °F 51% 30.21 in - WSW 6.9 mph - N/A   Clear
5:35 PM 33.8 °F 26.4 °F 10.4 °F 38% 30.21 in - South 9.2 mph - N/A   Clear
5:55 PM 33.8 °F 27.0 °F 12.2 °F 41% 30.22 in - SSE 8.1 mph - N/A   Clear
6:15 PM 32.0 °F 24.8 °F 14.0 °F 48% 30.22 in - SSE 8.1 mph - N/A   Clear
6:35 PM 32.0 °F 25.6 °F 14.0 °F 48% 30.22 in - SE 6.9 mph - N/A   Clear
6:55 PM 32.0 °F 26.4 °F 12.2 °F 44% 30.22 in - SSE 5.8 mph - N/A   Clear
7:15 PM 32.0 °F 24.8 °F 14.0 °F 48% 30.22 in - SSE 8.1 mph - N/A   Clear
7:35 PM 32.0 °F 24.8 °F 12.2 °F 44% 30.23 in - SSE 8.1 mph - N/A   Clear
7:55 PM 33.8 °F 25.3 °F 12.2 °F 41% 30.22 in - SSE 11.5 mph - N/A   Clear
8:15 PM 32.0 °F 23.0 °F 12.2 °F 44% 30.22 in - SSE 11.5 mph - N/A   Clear
8:35 PM 32.0 °F 23.0 °F 12.2 °F 44% 30.22 in - SSE 11.5 mph - N/A   Clear
8:55 PM 32.0 °F 23.0 °F 14.0 °F 48% 30.22 in - SSE 11.5 mph 18.4 mph N/A   Clear
9:15 PM 32.0 °F 23.0 °F 14.0 °F 48% 30.21 in - SSE 11.5 mph - N/A   Clear
9:35 PM 32.0 °F 23.0 °F 14.0 °F 48% 30.21 in - SE 11.5 mph 18.4 mph N/A   Clear
9:55 PM 33.8 °F 24.3 °F 12.2 °F 41% 30.21 in - SSE 13.8 mph 21.9 mph N/A   Clear
10:15 PM 33.8 °F 23.5 °F 12.2 °F 41% 30.20 in - SSE 16.1 mph 19.6 mph N/A   Clear
10:35 PM 33.8 °F 25.3 °F 12.2 °F 41% 30.21 in - SSE 11.5 mph 20.7 mph N/A   Clear
10:55 PM 32.0 °F 22.5 °F 12.2 °F 44% 30.20 in - SSE 12.7 mph 24.2 mph N/A   Clear
11:15 PM 32.0 °F 22.1 °F 14.0 °F 48% 30.20 in - SE 13.8 mph 23.0 mph N/A   Clear
11:35 PM 32.0 °F 22.5 °F 14.0 °F 48% 30.21 in 10.0 mi SE 12.7 mph 19.6 mph N/A   Clear
11:55 PM 32.0 °F 22.5 °F 14.0 °F 48% 30.21 in 10.0 mi SSE 12.7 mph 18.4 mph N/A   Clear